GW0631 Weather Reports


Display with metric or nautical units.
time (UTC)temp
F
wind
direction
speed
MPH
gust
MPH
rain 1hr
in
rain 24hr
in
rain mn
in
humidity
%
barometer
mb
20260507130418 57 93 1.0 1.0 0.00 0.37 0.37 99 1011.4
20260507125917 57 117 2.0 2.0 0.00 0.37 0.37 99 1011.0
20260507125415 57 97 2.0 2.0 0.00 0.37 0.37 99 1010.9
20260507124912 57 111 1.0 2.0 0.05 0.37 0.37 99 1011.1
20260507124408 57 88 0.0 1.0 0.05 0.37 0.37 99 1011.1
20260507123907 57 92 0.0 0.0 0.00 0.36 0.36 99 1011.1
20260507123403 57 90 0.0 0.0 0.07 0.36 0.36 99 1010.9
20260507122900 57 88 0.0 0.0 0.07 0.36 0.36 99 1010.8
20260507122355 57 102 0.0 0.0 0.00 0.35 0.35 99 1011.2
20260507121851 57 98 0.0 0.0 0.00 0.35 0.35 99 1011.2
20260507121347 57 96 0.0 0.0 0.05 0.35 0.35 99 1011.3
20260507120844 57 103 0.0 0.0 0.05 0.35 0.35 99 1011.2
20260507120340 57 98 0.0 0.0 0.07 0.34 0.34 99 1011.0
20260507115837 57 102 0.0 0.0 0.07 0.34 0.34 99 1011.0
20260507115332 57 95 0.0 0.0 0.14 0.34 0.34 99 1011.1
20260507114828 57 99 0.0 1.0 0.07 0.33 0.33 99 1011.1
20260507114325 57 109 1.0 2.0 0.12 0.32 0.32 99 1011.2
20260507113823 57 91 3.0 3.0 0.17 0.32 0.32 99 1011.3
20260507113320 57 109 0.0 0.0 0.24 0.31 0.31 99 1011.0
20260507112817 58 94 2.0 2.0 0.19 0.29 0.29 99 1010.8
20260507112314 59 83 0.0 1.0 0.07 0.27 0.27 99 1010.8
20260507111812 60 92 0.0 0.0 0.00 0.26 0.26 99 1010.6
20260507111308 60 110 1.0 1.0 0.05 0.26 0.26 99 1010.6
20260507110804 60 97 0.0 0.0 0.05 0.26 0.26 99 1010.4
20260507110301 60 95 0.0 0.0 0.07 0.25 0.25 99 1010.4
20260507105758 60 104 0.0 0.0 0.12 0.25 0.25 99 1010.3
20260507105254 61 75 1.0 1.0 0.12 0.24 0.24 99 1010.2
20260507104751 61 81 2.0 2.0 0.12 0.23 0.23 99 1010.1
20260507104248 61 98 1.0 1.0 0.12 0.22 0.22 99 1009.8
20260507103744 62 101 0.0 1.0 0.14 0.21 0.21 99 1010.0
20260507103240 63 127 0.0 1.0 0.12 0.20 0.20 99 1009.7
20260507102737 63 100 0.0 0.0 0.05 0.19 0.19 99 1009.8
20260507102233 64 116 0.0 0.0 0.05 0.19 0.19 99 1010.0
20260507101730 64 91 1.0 1.0 0.07 0.18 0.18 99 1009.5
20260507101225 65 285 2.0 2.0 0.07 0.18 0.18 99 1009.5
20260507100722 66 70 2.0 2.0 0.05 0.17 0.17 99 1009.3
20260507100221 66 111 0.0 0.0 0.05 0.17 0.17 99 1009.4
20260507095718 66 98 0.0 0.0 0.00 0.16 0.16 99 1009.3
20260507095214 66 110 0.0 0.0 0.07 0.16 0.16 99 1009.5
20260507094711 66 110 0.0 0.0 0.07 0.16 0.16 99 1009.4
20260507094209 66 111 0.0 0.0 0.12 0.15 0.15 99 1009.2
20260507093705 66 108 0.0 0.0 0.24 0.15 0.15 99 1009.2
20260507093204 66 116 0.0 0.0 0.24 0.13 0.13 99 1009.2
20260507092701 66 87 0.0 0.0 0.31 0.12 0.12 99 1009.1
20260507092157 67 78 0.0 0.0 0.19 0.10 0.10 99 1009.1
20260507091653 66 99 0.0 0.0 0.00 0.07 0.07 99 1009.3
20260507091150 66 117 0.0 0.0 0.00 0.07 0.07 99 1009.1
20260507090645 66 118 0.0 0.0 0.00 0.07 0.07 99 1008.9
20260507090143 66 94 0.0 0.0 0.00 0.07 0.07 99 1008.9
20260507085640 66 102 0.0 0.0 0.00 0.07 0.07 99 1008.6
20260507085136 66 87 0.0 0.0 0.00 0.07 0.07 99 1008.6
20260507084633 67 103 0.0 1.0 0.00 0.07 0.07 99 1009.1
20260507084130 67 91 0.0 0.0 0.00 0.07 0.07 99 1008.8
20260507083627 67 105 0.0 0.0 0.00 0.07 0.07 99 1008.9
20260507083124 67 107 0.0 0.0 0.00 0.07 0.07 99 1008.9
20260507082619 67 97 0.0 0.0 0.00 0.07 0.07 99 1009.1
20260507082116 67 136 1.0 1.0 0.00 0.07 0.07 99 1009.0
20260507081613 67 101 0.0 0.0 0.00 0.07 0.07 98 1009.0
20260507081109 67 90 0.0 0.0 0.00 0.07 0.07 98 1008.8
20260507080606 67 106 3.0 5.0 0.00 0.07 0.07 98 1008.6
20260507075557 67 87 1.0 1.0 0.00 0.07 0.07 98 1008.6
20260507075054 67 92 1.0 1.0 0.00 0.07 0.07 98 1008.6
20260507074551 67 205 2.0 3.0 0.00 0.07 0.07 98 1008.6
20260507074049 67 181 1.0 2.0 0.00 0.07 0.07 99 1008.7
20260507073544 67 118 0.0 0.0 0.00 0.07 0.07 99 1008.9
20260507073041 67 101 1.0 1.0 0.00 0.07 0.07 99 1008.8
20260507072539 67 73 0.0 0.0 0.00 0.07 0.07 99 1009.0
20260507072036 67 239 1.0 2.0 0.00 0.07 0.07 99 1008.9
20260507071533 67 88 1.0 2.0 0.00 0.07 0.07 99 1008.8
20260507071030 66 132 1.0 2.0 0.00 0.07 0.07 99 1008.9
20260507070527 66 89 2.0 3.0 0.00 0.07 0.07 99 1008.5
20260507070024 66 51 3.0 3.0 0.00 0.07 0.07 99 1008.7
20260507065520 66 50 1.0 1.0 0.00 0.07 0.07 99 1008.7
20260507065018 66 95 0.0 0.0 0.00 0.07 0.07 99 1008.5
20260507064515 66 146 0.0 1.0 0.00 0.07 0.07 99 1008.6
20260507064014 66 83 1.0 2.0 0.00 0.07 0.07 99 1008.4
20260507063510 67 88 1.0 2.0 0.07 0.07 0.07 98 1008.8
20260507063008 67 92 1.0 2.0 0.07 0.07 0.07 98 1008.5
20260507062504 67 125 1.0 1.0 0.05 0.06 0.06 98 1008.6
20260507062002 67 96 0.0 0.0 0.12 0.06 0.06 97 1008.7
20260507061459 67 160 2.0 3.0 0.12 0.05 0.05 97 1008.6
20260507060957 67 107 0.0 0.0 0.12 0.04 0.04 96 1009.0
20260507060454 67 106 1.0 2.0 0.07 0.03 0.03 96 1009.1
20260507055951 67 96 2.0 3.0 0.05 0.02 0.02 96 1009.5
20260507055446 67 102 1.0 1.0 0.05 0.02 0.02 95 1009.5
20260507054943 67 109 2.0 2.0 0.05 0.02 0.02 95 1009.7
20260507054439 67 81 0.0 1.0 0.00 0.01 0.01 94 1009.9
20260507053936 68 121 1.0 1.0 0.00 0.01 0.01 94 1009.6
20260507053434 68 163 1.0 2.0 0.00 0.01 0.01 93 1009.9
20260507052932 68 142 0.0 2.0 0.00 0.01 0.01 93 1010.0
20260507052429 68 88 1.0 1.0 0.07 0.01 0.01 93 1010.0
20260507051926 68 88 1.0 1.0 0.07 0.01 0.01 92 1010.1
20260507051424 68 322 3.0 6.0 0.00 0.00 0.00 91 1009.9
20260507050921 68 99 0.0 1.0 0.00 0.00 0.00 91 1009.9
20260507050417 68 98 1.0 2.0 0.00 0.00 0.00 90 1010.3
20260507045914 69 110 1.0 1.0 0.00 0.00 0.00 90 1010.3
20260507045411 69 96 0.0 0.0 0.00 0.00 0.00 89 1010.3
20260507044908 69 95 0.0 0.0 0.00 0.00 0.00 88 1010.2
20260507044405 70 127 0.0 1.0 0.00 0.00 0.00 86 1010.0
20260507043901 70 103 0.0 0.0 0.00 0.00 0.00 85 1009.9
20260507043357 70 101 0.0 0.0 0.00 0.00 0.00 84 1009.7
20260507042853 70 151 1.0 1.0 0.00 0.00 0.00 83 1009.6
20260507042350 70 106 1.0 1.0 0.00 0.00 0.00 83 1009.8
20260507041846 70 110 0.0 0.0 0.00 0.00 0.00 82 1010.0
20260507041343 70 92 0.0 0.0 0.00 0.00 0.00 82 1009.9
20260507040840 70 98 0.0 0.0 0.00 0.00 0.00 83 1009.9
20260507040336 70 99 0.0 0.0 0.00 0.00 0.00 83 1009.9
20260507035827 70 112 1.0 1.0 0.00 0.00 0.00 83 1009.9
20260507035322 70 122 0.0 0.0 0.00 0.00 0.00 82 1010.1
20260507034820 70 100 0.0 0.0 0.00 0.00 0.00 82 1009.9
20260507034317 70 100 1.0 2.0 0.00 0.00 0.00 82 1009.9
20260507033815 70 103 1.0 2.0 0.00 0.00 0.00 81 1009.9
20260507033312 70 97 0.0 0.0 0.00 0.00 0.00 81 1009.9
20260507032809 71 110 0.0 0.0 0.00 0.00 0.00 81 1009.7
20260507032306 71 16 1.0 2.0 0.00 0.00 0.00 81 1009.8
20260507031802 71 116 0.0 1.0 0.00 0.00 0.00 81 1009.8
20260507031259 71 329 2.0 2.0 0.00 0.00 0.00 81 1009.8
20260507030755 71 82 2.0 3.0 0.00 0.00 0.00 81 1009.7
20260507030253 71 45 2.0 2.0 0.00 0.00 0.00 80 1009.5
20260507025750 71 86 0.0 1.0 0.00 0.00 0.00 80 1009.5
20260507025247 71 297 4.0 5.0 0.00 0.00 0.00 80 1009.8
20260507024745 70 115 1.0 1.0 0.00 0.00 0.00 80 1009.8
20260507024242 70 140 2.0 2.0 0.00 0.00 0.00 80 1009.9
20260507023737 70 28 3.0 3.0 0.00 0.00 0.00 80 1010.0
20260507023235 70 114 0.0 0.0 0.00 0.00 0.00 80 1009.8
20260507022732 70 97 1.0 1.0 0.00 0.00 0.00 80 1010.2
20260507022228 70 125 0.0 1.0 0.00 0.00 0.00 80 1010.5
20260507021724 70 111 0.0 0.0 0.00 0.00 0.00 79 1010.1
20260507021220 70 107 1.0 1.0 0.00 0.00 0.00 80 1010.1
20260507020719 70 121 1.0 1.0 0.00 0.00 0.00 80 1010.2
20260507020214 71 107 0.0 0.0 0.00 0.00 0.00 79 1010.3
20260507015712 71 99 0.0 0.0 0.00 0.00 0.00 78 1010.2
20260507015209 71 95 0.0 0.0 0.00 0.00 0.00 78 1010.4
20260507014706 71 209 2.0 3.0 0.00 0.00 0.00 77 1010.4
20260507014202 71 156 1.0 1.0 0.00 0.00 0.00 77 1010.3
20260507013659 72 112 0.0 0.0 0.00 0.00 0.00 77 1010.2
20260507013156 72 123 0.0 1.0 0.00 0.00 0.00 76 1010.0
20260507012654 72 107 0.0 0.0 0.00 0.00 0.00 76 1010.3
20260507012149 72 338 1.0 2.0 0.00 0.00 0.00 75 1010.1
20260507011647 72 106 2.0 3.0 0.00 0.00 0.00 76 1009.9
20260507011143 72 37 1.0 1.0 0.00 0.00 0.00 76 1009.9
20260507010638 72 103 0.0 0.0 0.00 0.00 0.00 75 1009.9
20260507010134 72 90 2.0 3.0 0.00 0.00 0.00 75 1009.9
20260507005632 72 93 1.0 1.0 0.00 0.00 0.00 75 1010.2
20260507005127 72 99 0.0 1.0 0.00 0.00 0.00 75 1010.2
20260507004625 72 97 0.0 0.0 0.00 0.00 0.00 75 1010.2
20260507004122 72 156 1.0 2.0 0.00 0.00 0.00 75 1010.5
20260507003618 72 94 0.0 0.0 0.00 0.00 0.00 74 1010.3
20260507003113 72 115 0.0 0.0 0.00 0.00 0.00 74 1010.3
20260507002610 73 106 0.0 0.0 0.00 0.00 0.00 73 1010.3
20260507002106 73 104 0.0 0.0 0.00 0.00 0.00 73 1010.1
20260507001603 73 325 1.0 2.0 0.00 0.00 0.00 73 1010.0
20260507001100 73 102 1.0 1.0 0.00 0.00 0.00 73 1009.9
20260507000556 73 202 1.0 2.0 0.00 0.00 0.00 72 1009.8
20260507000052 73 130 0.0 1.0 0.00 0.00 0.00 72 1010.1
20260506235550 73 112 1.0 1.0 0.00 0.00 0.00 72 1009.9
20260506235044 73 184 2.0 2.0 0.00 0.00 0.00 71 1010.1
20260506234542 74 84 1.0 1.0 0.00 0.00 0.00 71 1009.9
20260506234039 74 91 1.0 1.0 0.00 0.00 0.00 70 1009.7
20260506233536 74 202 1.0 1.0 0.00 0.00 0.00 70 1009.8
20260506233033 74 110 0.0 0.0 0.00 0.00 0.00 69 1009.6
20260506232529 74 110 0.0 0.0 0.00 0.00 0.00 69 1009.7
20260506232025 74 54 0.0 1.0 0.00 0.00 0.00 69 1009.6
20260506231522 74 119 0.0 1.0 0.00 0.00 0.00 69 1009.3
20260506231020 74 129 3.0 5.0 0.00 0.00 0.00 69 1009.6
20260506230516 75 96 0.0 1.0 0.00 0.00 0.00 69 1009.6
20260506230014 75 101 0.0 1.0 0.00 0.00 0.00 69 1009.5
20260506225511 75 104 0.0 0.0 0.00 0.00 0.00 68 1009.6
20260506225007 75 112 0.0 1.0 0.00 0.00 0.00 68 1009.6
20260506224504 76 116 0.0 0.0 0.00 0.00 0.00 68 1009.7
20260506224000 76 115 0.0 0.0 0.00 0.00 0.00 68 1009.7
20260506223456 75 96 0.0 1.0 0.00 0.00 0.00 67 1009.6
20260506222953 76 96 0.0 0.0 0.00 0.00 0.00 68 1009.6
20260506222450 76 108 0.0 1.0 0.00 0.00 0.00 67 1009.5
20260506221947 76 111 0.0 1.0 0.00 0.00 0.00 66 1009.4
20260506221444 76 122 1.0 2.0 0.00 0.00 0.00 67 1009.8
20260506220942 76 124 1.0 1.0 0.00 0.00 0.00 66 1009.7
20260506220437 76 121 0.0 0.0 0.00 0.00 0.00 66 1009.9
20260506215934 76 92 0.0 1.0 0.00 0.00 0.00 67 1009.5
20260506215430 75 168 0.0 1.0 0.00 0.00 0.00 67 1009.5
20260506214926 75 120 0.0 0.0 0.00 0.00 0.00 67 1009.6
20260506214423 75 119 1.0 1.0 0.00 0.00 0.00 67 1009.4
20260506213921 76 124 0.0 0.0 0.00 0.00 0.00 66 1009.4
20260506213418 76 220 0.0 1.0 0.00 0.00 0.00 66 1009.4
20260506212915 76 114 1.0 1.0 0.00 0.00 0.00 66 1009.6
20260506212411 76 275 1.0 2.0 0.00 0.00 0.00 65 1009.5
20260506211906 76 82 1.0 1.0 0.00 0.00 0.00 66 1009.8
20260506211403 76 136 0.0 1.0 0.00 0.00 0.00 66 1009.5
20260506210900 76 207 1.0 2.0 0.00 0.00 0.00 65 1009.4
20260506210356 76 286 1.0 2.0 0.00 0.00 0.00 65 1009.4
20260506205854 76 57 1.0 2.0 0.00 0.00 0.00 65 1009.1
20260506205349 76 14 2.0 2.0 0.00 0.00 0.00 64 1008.9
20260506204846 76 174 0.0 1.0 0.00 0.00 0.00 64 1009.0
20260506204344 76 258 3.0 5.0 0.00 0.00 0.00 64 1008.7
20260506203841 76 186 3.0 3.0 0.00 0.00 0.00 64 1009.0
20260506203338 76 73 3.0 6.0 0.00 0.00 0.00 65 1009.0
20260506202835 76 76 2.0 3.0 0.00 0.00 0.00 63 1008.9
20260506202332 77 106 3.0 7.0 0.00 0.00 0.00 63 1009.0
20260506201829 76 128 1.0 1.0 0.00 0.00 0.00 63 1009.4
20260506201326 76 111 2.0 2.0 0.00 0.00 0.00 64 1009.2
20260506200823 76 130 2.0 2.0 0.00 0.00 0.00 64 1009.3
20260506200319 76 101 4.0 5.0 0.00 0.00 0.00 65 1009.2
20260506195815 76 108 1.0 2.0 0.00 0.00 0.00 65 1009.5
20260506195312 76 133 0.0 1.0 0.00 0.00 0.00 66 1009.5
20260506194809 75 112 0.0 0.0 0.00 0.00 0.00 68 1009.7
20260506194306 75 226 7.0 9.0 0.00 0.00 0.00 67 1009.9
20260506193803 75 112 0.0 1.0 0.00 0.00 0.00 68 1009.8
20260506193300 75 113 0.0 1.0 0.00 0.00 0.00 67 1010.2
20260506192756 75 221 3.0 3.0 0.00 0.00 0.00 67 1010.1
20260506192253 75 103 0.0 1.0 0.00 0.00 0.00 67 1010.3
20260506191750 75 107 0.0 1.0 0.00 0.00 0.00 66 1010.5
20260506191247 76 138 2.0 2.0 0.00 0.00 0.00 65 1010.7
20260506190744 76 120 0.0 1.0 0.00 0.00 0.00 65 1010.7
20260506190240 75 283 3.0 3.0 0.00 0.00 0.00 67 1011.0
20260506185737 76 161 3.0 3.0 0.00 0.00 0.00 66 1010.9
20260506185234 76 99 3.0 5.0 0.00 0.00 0.00 66 1010.7
20260506184731 76 96 1.0 1.0 0.00 0.00 0.00 66 1011.0
20260506184228 76 313 4.0 6.0 0.00 0.00 0.00 65 1011.1
20260506183725 76 116 1.0 2.0 0.00 0.00 0.00 65 1011.2
20260506183221 76 81 0.0 0.0 0.00 0.00 0.00 65 1011.1
20260506182718 76 144 1.0 2.0 0.00 0.00 0.00 66 1011.2
20260506182215 76 218 1.0 2.0 0.00 0.00 0.00 66 1011.4
20260506181713 76 95 1.0 1.0 0.00 0.00 0.00 66 1011.1
20260506181210 76 275 6.0 9.0 0.00 0.00 0.00 67 1011.1
20260506180707 75 258 7.0 8.0 0.00 0.00 0.00 68 1011.0
20260506180203 75 322 3.0 6.0 0.00 0.00 0.00 68 1011.1
20260506175659 75 269 3.0 3.0 0.00 0.00 0.00 69 1011.0
20260506175156 75 107 1.0 1.0 0.00 0.00 0.00 70 1011.0
20260506174649 74 180 1.0 1.0 0.00 0.00 0.00 70 1011.1
20260506174145 73 135 2.0 2.0 0.00 0.00 0.00 71 1011.5
20260506173643 73 88 2.0 2.0 0.00 0.00 0.00 71 1011.3
20260506173140 73 40 2.0 3.0 0.00 0.00 0.00 71 1011.1
20260506172637 73 113 1.0 1.0 0.00 0.00 0.00 72 1011.4
20260506172133 73 135 0.0 2.0 0.00 0.00 0.00 73 1011.6
20260506171631 72 319 3.0 5.0 0.00 0.00 0.00 72 1011.6
20260506171128 72 148 2.0 2.0 0.00 0.00 0.00 74 1011.7
20260506170620 71 110 1.0 1.0 0.00 0.00 0.00 75 1012.2
20260506170117 71 113 7.0 9.0 0.00 0.00 0.00 74 1012.5
20260506165615 71 136 2.0 2.0 0.00 0.00 0.00 76 1012.1
20260506165111 71 124 1.0 1.0 0.00 0.00 0.00 77 1012.3
20260506164608 71 20 2.0 3.0 0.00 0.00 0.00 77 1012.3
20260506164106 70 108 2.0 3.0 0.00 0.00 0.00 77 1012.5
20260506163601 70 134 1.0 1.0 0.00 0.00 0.00 79 1012.4
20260506163057 69 119 0.0 1.0 0.00 0.00 0.00 81 1012.5
20260506162554 69 106 1.0 1.0 0.00 0.00 0.00 80 1012.5
20260506162051 70 100 1.0 1.0 0.00 0.00 0.00 78 1012.5
20260506161549 70 103 3.0 3.0 0.00 0.00 0.00 77 1012.6
20260506161045 70 339 5.0 6.0 0.00 0.00 0.00 77 1012.7
20260506160542 70 275 2.0 2.0 0.00 0.00 0.00 77 1012.7
20260506152721 70 264 3.0 5.0 0.00 0.00 0.00 76 1013.3
20260506152219 70 264 3.0 5.0 0.00 0.00 0.00 76 1013.3
20260506151718 70 221 5.0 7.0 0.00 0.00 0.00 75 1013.4
20260506151214 70 76 1.0 1.0 0.00 0.00 0.00 76 1013.2
20260506150710 70 327 3.0 5.0 0.00 0.00 0.00 76 1013.4
20260506150207 70 148 2.0 3.0 0.00 0.00 0.00 77 1013.3
20260506145704 70 159 1.0 1.0 0.00 0.00 0.00 77 1013.5
20260506145201 70 110 4.0 5.0 0.00 0.00 0.00 76 1013.1
20260506144659 70 135 3.0 5.0 0.00 0.00 0.00 74 1013.6
20260506144155 70 211 1.0 2.0 0.00 0.00 0.00 75 1013.3
20260506143653 70 261 4.0 5.0 0.00 0.00 0.00 76 1013.1
20260506143150 69 148 1.0 1.0 0.00 0.00 0.00 78 1013.2
20260506142649 69 332 4.0 6.0 0.00 0.00 0.00 78 1013.4
20260506142146 69 184 1.0 2.0 0.00 0.00 0.00 79 1013.1
20260506141644 69 264 3.0 5.0 0.00 0.00 0.00 77 1013.3
20260506141142 69 216 3.0 6.0 0.00 0.00 0.00 76 1013.4
20260506140639 69 158 1.0 2.0 0.00 0.00 0.00 76 1013.2
20260506140136 69 223 5.0 7.0 0.00 0.00 0.00 76 1013.1
20260506135633 69 82 1.0 1.0 0.00 0.00 0.00 76 1012.9
20260506135129 69 246 3.0 3.0 0.00 0.00 0.00 76 1013.2
20260506134626 69 114 3.0 3.0 0.00 0.00 0.00 77 1013.0
20260506134121 69 140 4.0 6.0 0.00 0.00 0.00 76 1013.0
20260506133619 69 171 3.0 3.0 0.00 0.00 0.00 76 1013.1
20260506133116 69 33 5.0 6.0 0.00 0.00 0.00 76 1013.1
20260506132614 69 222 3.0 5.0 0.00 0.00 0.00 76 1012.9
20260506132110 69 326 3.0 5.0 0.00 0.00 0.00 76 1013.1
20260506131608 69 215 3.0 5.0 0.00 0.00 0.00 76 1012.9
20260506131104 68 106 1.0 2.0 0.00 0.00 0.00 77 1013.2
20260506130601 68 32 4.0 5.0 0.00 0.00 0.00 78 1013.1